Regional Weather Roundup
Issued by NWS State College, PA

Home | Current Version | Previous Version | Graphics & Text | Print | Product List | Glossary Off
Versions: 1 2 3 4 5 6 7 8 9 10 11 12 13 14 15 16 17 18 19 20 21 22 23 24 25 26 27 28 29 30 31 32 33 34 35 36 37 38 39 40 41 42 43 44 45 46 47 48 49 50

000
ASUS41 KCTP 221203
RWRCTP

REGIONAL WEATHER ROUNDUP
NATIONAL WEATHER SERVICE STATE COLLEGE PA
700 AM EST WED FEB 22 2017

Note: "fair" indicates few or no clouds below 12,000 feet with no
significant weather and/or obstructions to visibility.

* = STATION THAT DOES NOT REPORT PRECIPITATION /E.G. RAIN...SNOW...ETC/
    THUNDER OR FOG.

PAZ002>004-007>009-013>016-020>023-029>032-221300-
WESTERN PENNSYLVANIA

CITY           SKY/WX    TMP DP  RH WIND       PRES   REMARKS
ERIE           MOCLDY    52  44  74 S6        29.90S
MEADVILLE      CLOUDY    53  44  71 S6        29.91S
FRANKLIN*      CLOUDY    46  41  81 S6        29.94S
NEW CASTLE     CLOUDY    50  49  96 CALM      29.94S
BEAVER COUNTY  NOT AVBL
BUTLER*        CLOUDY    48  43  81 NE3       29.96R
PITTSBURGH INT CLOUDY    53  45  74 CALM      29.95R
PITTSBURGH     CLOUDY    53  38  56 S6        29.95R
INDIANA*       CLOUDY    48  41  76 CALM      29.99R
LATROBE        CLOUDY    48  41  76 CALM      29.97S
WASHINGTON CO* CLOUDY    48  45  87 CALM      29.98R
$$

PAZ004>006-010>012-017>019-024>028-033>037-041-042-045-046-049>053-221300-
CENTRAL PENNSYLVANIA

CITY           SKY/WX    TMP DP  RH WIND       PRES   REMARKS
BRADFORD       CLOUDY    42  35  76 CALM      29.94S
DUBOIS         CLOUDY    45  32  60 SE3       29.94S
CLEARFIELD       N/A    N/A N/A N/A MISG      29.97R
JOHNSTOWN      CLOUDY    51  37  58 SW6       29.97R
ALTOONA        CLOUDY    46  35  65 CALM      29.98R
STATE COLLEGE  MOCLDY    45  34  65 CALM      29.98S
WILLIAMSPORT   CLOUDY    43  32  65 SE3       30.00R
SELINSGROVE    CLOUDY    42  35  76 CALM      30.02S
FT INDIANTOWN  CLOUDY    40  40  99 CALM      30.02S
CAPITAL CITY   CLOUDY    43  35  73 E3        30.02F
HARRISBURG     CLOUDY    42  36  79 CALM      30.02S
YORK           CLOUDY    41  37  86 S3        30.01S
$$

PAZ038>040-043-044-047-048-054-055-060>062-067>071-221300-
EASTERN PENNSYLVANIA

CITY           SKY/WX    TMP DP  RH WIND       PRES   REMARKS
SCRANTON       CLOUDY    42  35  76 CALM      29.99F
MOUNT POCONO   CLOUDY    38  33  82 NW6       29.97F
ALLENTOWN      CLOUDY    41  34  76 CALM      30.03F
QUAKERTOWN*    CLOUDY    39  36  87 CALM      30.03F
READING        CLOUDY    42  37  82 SW3       30.03S
LANCASTER      CLOUDY    39  38  96 E3        30.03R
COATESVILLE    CLOUDY    39  36  87 CALM      30.04S
POTTSTOWN      CLOUDY    40  35  83 CALM      30.05F
BLUE BELL      CLOUDY    37  36  93 CALM      30.04F
DOYLESTOWN     CLOUDY    42  36  79 SE5       30.03F
WILLOW GROVE   NOT AVBL
NORTH PHILA    CLOUDY    43  39  86 SE3       30.08S
PHILADELPHIA   CLOUDY    42  37  82 SE5       30.07F
$$




USA.gov is the U.S. government's official web portal to all federal, state and local government web resources and services.